This demonstration page uses our WeatherBlox Daily Observations layout. Learn more.

40.92945, -100.16068

Hourly Observations for August 29, 2018

Temp ( °F °C ) Dew Point ( °F °C ) Humidity (%) Winds ( mph kmh ) Pressure ( in mb ) Visibility ( mi km ) Precip ( " mm )
12:15 am 00:15 Clear 54 12.4 52 10.9 91 91 N 3 6 30.12 1020 10 16.0934 0 0
12:35 am 00:35 Clear 54 12.3 52 11 92 92 NNE 3 6 30.12 1020 10 16.0934 0 0
12:55 am 00:55 Clear 54 12 51 10.5 91 91 Calm 30.12 1020 10 16.0934 0 0
1:15 am 01:15 Clear 53 11.5 51 10.4 93 93 Calm 30.12 1020 10 16.0934 0 0
1:35 am 01:35 Clear 52 11.2 50 10.1 93 93 N 3 6 30.12 1020 10 16.0934 0 0
1:55 am 01:55 Clear 50 10 48 9 94 94 Calm 30.15 1021 7 11.26538 0 0
2:15 am 02:15 Clear 52 11 50 10.2 95 95 Calm 30.15 1021 10 16.0934 0 0
2:35 am 02:35 Clear 51 10.8 50 9.8 94 94 Calm 30.15 1021 10 16.0934 0 0
2:55 am 02:55 Clear 49 9.7 47 8.6 93 93 Calm 30.15 1021 10 16.0934 0 0
3:15 am 03:15 Clear 50 9.8 48 9 95 95 Calm 30.15 1021 7 11.26538 0 0
3:35 am 03:35 Clear 49 9.3 47 8.5 95 95 Calm 30.15 1021 10 16.0934 0 0
3:55 am 03:55 Clear 49 9.3 47 8.5 95 95 W 3 6 30.15 1021 10 16.0934 0 0
4:15 am 04:15 Clear 49 9.2 47 8.4 95 95 WNW 3 6 30.15 1021 7 11.26538 0 0
4:35 am 04:35 Clear 48 9.1 47 8.3 95 95 WNW 5 7 30.15 1021 7 11.26538 0 0
4:55 am 04:55 Clear with Mist and Fog 49 9.3 47 8.5 95 95 N 3 6 30.15 1021 5 8.0467 0 0
5:15 am 05:15 Clear with Mist and Fog 48 9 47 8.1 94 94 N 5 7 30.15 1021 5 8.0467 0 0
5:35 am 05:35 Clear with Mist and Fog 48 9.1 47 8.4 95 95 Calm 30.18 1022 5 8.0467 0 0
5:55 am 05:55 Clear 48 8.7 46 8 95 95 Calm 30.18 1022 7 11.26538 0 0
6:15 am 06:15 Clear 47 8.4 46 7.6 95 95 W 3 6 30.18 1022 7 11.26538 0 0
6:35 am 06:35 Clear with Mist and Fog 47 8.6 46 7.9 95 95 WNW 3 6 30.18 1022 5 8.0467 0 0
6:55 am 06:55 Clear with Mist and Fog 46 7.9 45 7.2 95 95 Calm 30.21 1023 5 8.0467 0 0
7:15 am 07:15 Partly Cloudy with Mist and Fog 46 8 45 7.3 95 95 Calm 30.24 1024 4 6.43736 0 0
7:35 am 07:35 Mostly Cloudy with Mist and Fog 47 8.1 45 7.4 95 95 Calm 30.24 1024 2 3.21868 0 0
7:55 am 07:55 Sunny with Mist and Fog 49 9.2 47 8.5 95 95 Calm 30.21 1023 4 6.43736 0 0
8:15 am 08:15 Partly Cloudy with Mist and Fog 51 10.7 50 10.1 96 96 Calm 30.21 1023 5 8.0467 0 0
8:35 am 08:35 Sunny 54 12.3 53 11.6 96 96 Calm 30.18 1022 7 11.26538 0 0
8:55 am 08:55 Sunny 57 13.8 55 12.7 93 93 S 3 6 30.18 1022 10 16.0934 0 0
9:15 am 09:15 Sunny 59 14.9 54 12.3 85 85 SSE 6 9 30.18 1022 10 16.0934 0 0
9:35 am 09:35 Sunny 61 15.9 53 11.8 77 77 S 5 7 30.15 1021 10 16.0934 0 0
9:55 am 09:55 Sunny 62 16.6 53 11.5 72 72 SE 3 6 30.15 1021 10 16.0934 0 0
10:15 am 10:15 Sunny 63 17.1 53 11.9 72 72 SSE 3 6 30.15 1021 10 16.0934 0 0
10:35 am 10:35 Partly Cloudy 64 17.8 54 12.2 70 70 ESE 3 6 30.15 1021 10 16.0934 0 0
10:55 am 10:55 Partly Cloudy 65 18.6 53 11.7 64 64 SE 5 7 30.12 1020 10 16.0934 0 0
11:15 am 11:15 Mostly Cloudy 66 19 52 11.1 60 60 SE 8 13 30.12 1020 10 16.0934 0 0
11:35 am 11:35 Partly Cloudy 67 19.4 52 10.9 58 58 S 7 11 30.12 1020 10 16.0934 0 0
11:55 am 11:55 Partly Cloudy 67 19.7 52 11.3 59 59 ESE 6 9 30.09 1019 10 16.0934 0 0
12:15 pm 12:15 Sunny 70 20.9 52 11 53 53 SE 7 11 30.09 1019 10 16.0934 0 0
12:35 pm 12:35 Sunny 69 20.7 52 11 54 54 SSE 5 7 30.09 1019 10 16.0934 0 0
12:55 pm 12:55 Sunny 71 21.5 52 10.9 51 51 S 7 11 30.06 1018 10 16.0934 0 0
1:15 pm 13:15 Sunny 72 22.4 52 11.3 50 50 SSE 9 15 30.06 1018 10 16.0934 0 0
1:35 pm 13:35 Sunny 73 22.5 52 11.3 49 49 SSE 9 15 30.03 1017 10 16.0934 0 0
1:55 pm 13:55 Sunny 73 22.7 51 10.8 47 47 SE 10 17 30.03 1017 10 16.0934 0 0
2:15 pm 14:15 Sunny 73 22.8 53 11.9 50 50 SSE 8 13 30.03 1017 10 16.0934 0 0
2:35 pm 14:35 Sunny 74 23.4 52 11 46 46 SE 10 17 30.03 1017 10 16.0934 0 0
2:55 pm 14:55 Sunny 74 23.5 53 11.5 47 47 SE 12 19 30.03 1017 10 16.0934 0 0
3:15 pm 15:15 Sunny 75 23.7 53 11.5 46 46 SE 8 13 30 1016 10 16.0934 0 0
3:36 pm 15:36 Sunny 75 24 52 11 44 44 S 10 17 30 1016 10 16.0934 0 0
3:56 pm 15:56 Sunny 75 24 52 11 44 44 SSE 12 19 30 1016 10 16.0934 0 0
4:17 pm 16:17 Sunny 75 24 54 12 47 47 S 12 19 30 1016 10 16.0934 0 0
4:36 pm 16:36 Sunny 75 24 54 12 47 47 SSE 12 19 30 1016 10 16.0934 0 0
5:15 pm 17:15 Sunny 76 24.4 53 11.6 45 45 SSE 9 15 29.97 1015 10 16.0934 0 0
5:35 pm 17:35 Sunny 76 24.3 53 11.8 46 46 SSE 14 22 29.94 1014 10 16.0934 0 0
5:55 pm 17:55 Sunny 76 24.3 53 11.5 45 45 SE 14 22 29.94 1014 10 16.0934 0 0
6:10 pm 18:10 Sunny 75 24.1 53 11.7 46 46 SSE 16 26 29.94 1014 10 16.0934 0 0
6:55 pm 18:55 Sunny 74 23.3 52 11.2 47 47 SE 12 19 29.97 1015 10 16.0934 0 0
7:15 pm 19:15 Sunny 73 22.9 52 11.1 47 47 SSE 12 19 29.97 1015 10 16.0934 0 0
7:35 pm 19:35 Sunny 73 22.5 53 11.4 50 50 SE 7 11 29.97 1015 10 16.0934 0 0
8:15 pm 20:15 Sunny 68 20 54 12.4 62 62 SE 6 9 30 1016 10 16.0934 0 0
8:35 pm 20:35 Clear 67 19.2 55 12.7 66 66 SE 7 11 30 1016 10 16.0934 0 0
8:55 pm 20:55 Clear 66 19.1 55 12.7 67 67 SE 6 9 30 1016 10 16.0934 0 0
9:20 pm 21:20 Clear 65 18.5 55 12.8 70 70 SE 6 9 30 1016 10 16.0934 0 0
9:35 pm 21:35 Clear 63 17.3 55 12.9 76 76 SSE 5 7 30 1016 10 16.0934 0 0
9:55 pm 21:55 Clear 61 16.2 55 12.9 81 81 SE 6 9 30.03 1017 10 16.0934 0 0
10:15 pm 22:15 Clear 62 16.8 56 13.2 79 79 SE 6 9 30.03 1017 10 16.0934 0 0
10:35 pm 22:35 Clear 62 16.9 55 13 78 78 SE 5 7 30.06 1018 10 16.0934 0 0
10:55 pm 22:55 Clear 62 16.8 55 13 78 78 SE 3 6 30.06 1018 10 16.0934 0 0
11:15 pm 23:15 Clear 61 16.3 55 12.7 79 79 SE 8 13 30.03 1017 10 16.0934 0 0
11:35 pm 23:35 Clear 63 17 55 12.8 76 76 SE 7 11 30.06 1018 10 16.0934 0 0
11:55 pm 23:55 Clear 63 17.1 55 12.7 75 75 SE 8 13 30 1016 10 16.0934 0 0

Powered by AerisWeather